Regional Weather Roundup
Issued by NWS

Home | Current Version | Previous Version | Text Only | Print | Product List | Glossary Off
Versions: 1 2 3 4 5 6 7 8 9 10 11 12 13 14 15 16 17 18 19 20 21 22 23 24 25 26 27 28 29 30 31 32 33 34 35 36 37 38 39 40 41 42 43 44 45 46 47 48 49 50

000
ASUS43 KOAX 282002
RWRNE

WEATHER ROUNDUP FOR NEBRASKA
NATIONAL WEATHER SERVICE OMAHA NE
300 PM CDT TUE JUL 28 2015

NOTES: SATELLITE DATA IS BEING USED TO AUGMENT CLOUD COVER ABOVE
       12000 FEET.
       "FAIR" INDICATES FEW OR NO CLOUDS BELOW 12,000 FEET WITH NO
       SIGNIFICANT WEATHER AND/OR OBSTRUCTIONS TO VISIBILITY.

  * THESE STATIONS DO NOT REPORT WEATHER SUCH AS RAIN...SNOW OR FOG.

NEZ001>004-019>022-054>056-282100-
NEBRASKA PANHANDLE

CITY           SKY/WX    TMP DP  RH WIND       PRES   REMARKS
SCOTTSBLUFF    SUNNY     79  31  17 N12       30.12S
ALLIANCE       SUNNY     79  34  19 W16G26    30.10S
CHADRON        SUNNY     79  37  22 NW15G22   30.07S
KIMBALL        SUNNY     78  31  18 N14G24    30.14S
SIDNEY         SUNNY     81  31  16 N20G26    30.14R
$$

NEZ057>060-069>072-079>082-282100-
SOUTHWEST NEBRASKA

CITY           SKY/WX    TMP DP  RH WIND       PRES   REMARKS
NORTH PLATTE   SUNNY     83  48  29 N13G18    30.02S
IMPERIAL       SUNNY     83  40  21 N18       30.08R
MCCOOK         SUNNY     86  51  29 N14G22    30.02R
$$

NEZ005>010-023>029-035>040-094-282100-
NORTH CENTRAL NEBRASKA

CITY           SKY/WX    TMP DP  RH WIND       PRES   REMARKS
VALENTINE      SUNNY     82  44  26 W9        30.02S
AINSWORTH      SUNNY     80  44  28 W10G18    30.03S
BROKEN BOW     SUNNY     82  53  36 N8G20     30.01S
O`NEILL        SUNNY     78  53  42 NW14G22   29.99S
ORD            MOSUNNY   82  53  36 NW14      29.98R
$$

NEZ041-046>049-061>064-073>077-083>087-282100-
SOUTH CENTRAL NEBRASKA

CITY           SKY/WX    TMP DP  RH WIND       PRES   REMARKS
GRAND ISLAND   CLOUDY    84  58  40 N20       29.96R
AURORA         CLOUDY    78  71  79 N14       29.95R
HASTINGS       SUNNY     82  66  58 N16G23    29.95R
KEARNEY *      MOSUNNY   82  54  36 N17       29.99R
$$

NEZ011>018-030>034-042>045-282100-
NORTHEAST NEBRASKA

CITY           SKY/WX    TMP DP  RH WIND       PRES   REMARKS
NORFOLK        CLOUDY    79  58  48 NW18      29.93R
BLAIR          CLOUDY    85  74  70 S8        29.88R HX  92
COLUMBUS *     CLOUDY    73  66  78 N8        29.94R
FREMONT        PTSUNNY   84  76  75 NW5       29.89S HX  93
TEKAMAH        CLOUDY    81  77  88 W3        29.88R
$$

NEZ050>053-065>068-078-088>093-282100-
SOUTHEAST NEBRASKA

CITY           SKY/WX    TMP DP  RH WIND       PRES   REMARKS
LINCOLN        PTSUNNY   89  74  60 SW8       29.88R HX  98
OMAHA EPPLEY   LGT RAIN  88  75  65 S10       29.86R HX  97
FALLS CITY     SUNNY     92  77  61 S14       29.84S HX 105
$$

NEZ044-045-051>053-067-282100-
OMAHA AREA

CITY           SKY/WX    TMP DP  RH WIND       PRES   REMARKS
OMAHA EPPLEY   LGT RAIN  88  75  65 S10       29.86R HX  97
BLAIR          CLOUDY    85  74  70 S8        29.88R HX  92
FREMONT        PTSUNNY   84  76  75 NW5       29.89S HX  93
OFFUTT AFB     PTSUNNY   88  76  67 S7        29.85R HX  98
$$


USA.gov is the U.S. government's official web portal to all federal, state and local government web resources and services.